Theta_e
337 340 340 341 343 344 345 344 344 344 343 343 345 345 345 345 346 345 345 342 342 342 342 343 344 344 344 345 344 344 343 342 342 341 340 340 340 339 338 338 338 338 337 338 338 338 339 338 338 338 339 339 340 341 341 341 341 340 340 339 338 338 338 337 336 336 337 338 340 341 342 343 343 343
340 341 339 339 341 342 343 344 344 344 343 344 345 346 345 346 346 345 345 342 341 341 341 341 343 343 344 345 345 345 344 344 343 342 340 341 341 340 338 338 338 339 340 339 340 341 341 341 341 340 340 342 345 346 347 347 346 346 344 343 342 342 342 340 339 338 338 338 338 338 340 341 342 342
339 340 340 339 340 341 342 343 343 343 343 343 344 345 345 345 345 345 345 344 342 341 341 341 343 343 344 345 346 346 346 345 344 344 343 344 346 343 341 339 339 342 343 343 343 344 345 345 345 343 341 343 348 349 350 350 350 349 349 347 346 345 345 344 342 342 341 340 339 339 339 339 339 340
338 340 341 340 340 341 342 343 344 344 344 344 343 344 344 344 343 344 344 344 343 341 341 341 342 343 343 344 345 345 345 345 345 346 346 347 347 347 345 343 343 345 344 343 342 342 343 346 347 346 345 347 350 350 351 351 351 351 351 350 349 349 348 348 347 346 344 343 342 341 341 340 340 340
339 341 341 341 341 341 341 342 344 344 345 345 344 343 343 343 343 343 343 344 343 342 341 342 342 343 342 343 343 343 344 344 345 345 345 346 346 346 346 346 345 344 342 341 341 340 340 342 344 345 346 347 349 350 350 350 350 351 351 351 350 349 349 349 349 349 347 346 345 344 343 343 342 342
339 342 343 342 342 342 342 342 343 344 346 345 344 343 343 343 343 342 343 343 343 342 341 342 343 343 342 342 342 343 343 343 344 343 343 344 344 344 344 344 343 342 341 341 341 340 340 340 341 342 343 343 344 345 346 346 347 348 349 349 349 348 348 348 348 349 349 348 348 347 346 345 344 344
339 342 344 344 343 343 342 342 342 344 345 346 345 343 343 343 343 343 343 343 343 342 342 342 343 343 343 342 342 343 343 343 343 343 342 343 343 343 342 341 341 341 342 342 342 341 341 341 342 342 343 343 343 344 344 344 344 345 346 347 347 347 347 347 347 347 347 348 348 348 347 347 347 347
339 340 341 343 344 344 344 343 342 343 343 344 345 344 343 344 344 343 343 343 343 343 343 343 343 343 343 343 343 343 343 343 343 342 342 342 342 342 341 341 340 342 342 343 343 343 342 342 342 343 343 343 343 344 344 344 344 344 344 344 344 346 346 347 347 347 347 347 347 347 347 347 348 348
343 341 339 339 341 344 345 344 343 343 342 342 343 344 344 344 344 344 344 343 343 344 344 343 343 344 344 343 343 343 343 342 342 342 342 342 342 342 342 342 342 342 343 343 343 342 341 340 341 342 343 343 343 344 344 344 344 344 344 344 343 343 345 346 346 346 346 346 347 347 348 347 347 348
347 346 344 342 342 343 344 345 344 344 343 342 341 343 344 344 344 345 345 345 344 344 344 344 344 344 344 344 344 343 343 343 343 343 342 342 343 343 343 343 343 343 343 343 342 340 339 338 338 340 341 342 342 343 343 344 344 345 345 344 344 343 344 344 344 343 344 344 345 346 347 346 346 345
348 348 348 347 346 345 344 344 344 344 344 344 342 341 343 345 345 345 345 346 346 345 344 344 344 343 343 344 344 344 344 344 344 344 344 344 344 344 345 344 344 344 343 343 342 340 338 337 337 338 339 340 341 342 343 343 343 344 344 344 344 344 344 344 343 342 341 341 341 343 344 344 344 343
348 348 348 348 348 348 347 345 343 343 343 344 343 341 341 342 344 345 346 346 346 346 346 345 344 344 343 344 344 344 344 344 344 344 344 345 345 345 345 345 344 345 344 344 344 342 340 338 337 336 337 338 340 341 342 343 343 344 344 345 345 345 343 342 341 340 339 337 337 339 340 342 342 341
347 347 347 347 347 347 348 347 346 344 342 342 343 343 341 340 341 342 344 346 346 346 346 346 345 344 344 344 344 344 344 343 344 343 344 345 346 346 346 345 345 345 345 346 345 344 343 340 338 338 337 337 338 339 341 341 342 342 341 341 340 339 339 338 338 339 338 338 337 337 337 338 339 339
346 346 346 347 347 346 347 348 347 347 345 343 342 343 343 342 341 340 341 344 346 346 346 346 346 345 344 344 344 344 344 344 344 344 344 344 345 346 345 345 345 345 346 346 346 345 344 343 341 341 341 340 340 340 339 338 337 337 336 336 336 337 337 338 339 340 340 340 339 338 338 337 337 337
346 346 346 346 346 346 347 347 347 348 347 346 344 342 342 343 343 343 341 342 345 346 346 346 346 346 345 345 345 345 346 346 345 344 344 344 345 345 345 345 345 345 346 346 346 346 345 344 343 343 343 343 343 341 339 337 336 336 337 337 338 338 339 339 339 339 339 339 339 338 338 338 337 337
346 346 346 346 346 347 347 346 347 347 347 347 346 345 342 341 343 344 343 342 344 345 345 345 346 346 345 346 345 346 347 347 347 346 345 345 345 345 345 346 346 346 346 346 347 347 346 345 345 345 344 344 343 340 338 338 338 338 339 339 339 339 338 338 338 338 338 338 339 339 339 339 339 338
344 344 345 346 346 346 347 347 347 347 347 347 347 347 346 343 342 343 344 344 343 343 343 343 344 345 346 347 347 347 347 347 347 347 346 346 345 345 346 346 346 347 347 347 347 347 346 345 346 345 344 342 340 339 339 339 340 340 340 340 339 339 338 338 339 339 339 340 340 340 341 341 341 340
344 344 344 344 344 345 346 346 347 347 347 347 347 347 347 346 344 343 343 344 343 342 342 342 342 343 345 347 347 347 348 348 348 347 347 346 346 346 346 346 347 347 347 347 347 347 347 346 345 343 341 339 339 339 339 340 340 340 340 340 339 339 339 340 340 341 341 341 341 342 342 342 342 341
344 343 343 343 343 343 344 344 345 346 347 347 347 347 347 348 346 345 342 341 342 343 343 342 342 341 343 345 346 347 348 348 347 347 346 346 346 346 346 346 347 347 347 347 347 347 346 343 342 340 338 338 339 338 339 340 340 340 340 340 340 340 340 340 340 340 340 340 340 341 341 341 341 341
343 342 342 342 342 342 343 343 343 345 346 348 348 347 347 347 347 346 343 340 340 342 343 343 342 341 342 344 345 346 347 347 346 346 346 346 346 346 346 347 347 347 347 346 345 344 342 340 339 339 338 338 339 339 339 340 341 340 340 341 341 341 341 340 340 340 339 338 338 338 338 338 339 339
341 341 341 342 342 342 342 342 342 344 345 347 348 348 348 348 348 347 346 343 341 342 343 343 343 342 343 345 346 346 347 347 347 348 347 347 347 347 347 347 347 346 345 344 342 340 340 340 340 340 339 339 339 340 340 340 341 341 341 341 341 341 340 340 339 338 338 338 338 338 339 339 339 340
342 342 342 343 345 345 344 343 342 342 344 346 347 348 349 348 348 348 347 346 343 342 342 343 343 344 344 346 347 347 347 348 348 348 348 348 348 348 347 346 345 344 343 342 341 341 341 341 341 341 341 340 340 340 340 340 341 341 341 341 340 340 339 338 337 338 339 340 340 340 340 340 340 340
343 343 344 345 346 346 347 346 344 342 343 345 347 348 348 349 348 347 347 347 345 342 341 342 343 344 345 347 347 347 348 348 348 348 348 348 347 347 346 345 344 344 343 342 342 343 343 343 342 341 341 341 341 341 341 341 342 342 341 339 337 337 337 337 338 339 340 340 340 339 339 339 339 339
345 345 345 346 346 347 347 347 347 344 342 343 346 347 348 348 348 346 347 347 346 344 343 344 345 346 346 347 347 348 348 348 347 347 347 346 346 346 345 345 344 343 344 343 344 344 343 342 341 341 341 342 342 342 342 343 342 341 338 335 335 336 337 338 339 339 339 339 338 338 339 339 339 339
345 345 346 346 346 347 347 346 347 346 344 343 345 347 348 347 347 347 347 347 346 346 347 347 348 348 347 347 348 347 347 347 347 347 346 345 345 345 344 344 344 344 345 345 345 344 343 342 341 341 342 342 342 343 343 342 341 338 334 333 334 336 337 338 338 338 337 337 337 337 337 338 338 338
344 344 345 345 345 347 347 346 346 346 346 345 346 347 347 347 347 347 347 346 347 348 348 348 348 349 348 347 347 347 346 346 346 346 346 345 344 344 344 344 345 346 345 345 344 344 343 342 341 341 342 342 342 343 343 341 338 334 332 334 336 336 336 336 336 335 334 333 333 333 333 334 334 334
345 344 344 344 345 346 347 346 345 345 346 346 347 348 347 347 348 347 347 347 348 348 349 348 348 348 347 346 346 347 346 346 346 346 345 345 345 345 346 346 346 346 345 344 343 343 343 342 342 342 342 343 343 343 341 338 334 331 332 335 337 336 334 333 332 331 330 330 330 330 329 329 330 330
344 345 345 344 345 345 345 346 346 345 345 346 347 348 348 347 347 347 347 348 348 349 349 348 347 347 347 345 346 346 346 346 346 346 345 345 345 346 345 345 345 345 344 344 343 343 343 343 343 343 343 343 343 341 338 333 330 331 333 335 334 333 332 331 330 329 328 328 327 326 326 327 328 328
344 345 345 345 345 345 344 345 345 345 346 347 347 347 347 347 347 347 348 348 348 348 348 348 347 346 345 345 346 346 346 346 345 345 345 344 344 344 344 344 344 344 344 344 344 343 343 343 343 343 343 343 341 338 334 331 329 332 334 333 331 330 330 329 328 327 326 325 324 323 324 325 325 325
344 344 345 345 345 345 344 344 345 345 346 346 347 347 347 347 347 347 348 348 348 347 346 347 346 346 345 346 347 346 345 345 344 343 342 343 343 343 343 344 344 343 343 343 343 343 343 343 343 343 343 342 338 333 330 330 330 331 331 331 330 329 328 327 326 325 323 322 322 323 323 323 323 323
344 344 344 344 344 345 345 345 345 345 346 346 346 346 347 347 347 346 347 347 347 346 346 346 346 346 345 345 345 344 343 342 341 341 342 342 342 343 343 343 343 343 343 343 343 343 343 342 342 342 341 338 334 330 330 331 331 330 329 328 328 327 326 325 324 322 322 322 322 322 322 322 322 322
343 343 344 344 344 344 345 345 345 345 346 346 346 346 346 346 346 346 346 347 347 346 346 346 345 343 342 342 342 342 341 340 340 341 341 342 342 343 343 344 344 343 343 343 342 342 341 341 340 340 337 334 332 332 332 331 329 328 327 327 326 325 324 323 322 322 322 322 321 321 321 321 321 322
342 342 343 344 344 344 345 345 344 345 346 346 346 346 346 347 347 346 347 347 346 346 344 343 342 341 340 341 340 339 338 338 339 341 342 342 343 343 344 344 344 343 343 342 342 341 340 339 338 337 335 333 333 332 331 329 328 327 326 325 324 323 322 322 322 321 321 321 321 321 320 321 321 321
341 341 342 343 344 345 345 345 345 345 346 346 346 345 345 345 344 344 344 344 344 343 342 341 340 340 339 338 337 338 339 340 341 342 343 343 344 344 344 344 343 342 342 341 340 339 338 336 335 335 335 334 333 331 329 328 327 326 325 323 322 322 322 321 321 321 320 320 320 320 320 320 320 320
341 341 342 342 343 344 345 345 345 345 345 346 345 344 344 343 341 340 340 341 341 340 340 340 339 339 338 338 339 341 342 342 342 343 343 343 344 344 343 342 342 341 340 338 336 335 335 334 334 335 334 333 331 329 327 327 326 325 323 322 322 321 321 321 321 320 319 319 319 319 319 319 318 317
341 341 341 341 342 343 344 345 345 345 345 344 344 344 344 343 342 341 341 341 341 340 340 339 339 339 340 341 342 342 342 342 343 343 343 343 343 343 342 341 340 339 336 334 333 333 334 334 334 334 333 331 330 328 327 326 325 324 322 322 321 321 320 320 320 319 319 318 318 318 318 317 316 316
340 341 340 341 342 342 343 344 345 345 345 344 344 344 344 344 344 343 342 342 341 340 339 339 340 341 342 343 343 342 342 343 343 343 342 342 342 342 341 340 338 336 334 333 333 333 334 333 333 332 332 330 328 326 325 325 324 323 322 321 321 320 319 319 319 319 319 318 317 317 317 316 315 315
338 338 339 340 341 341 342 343 343 344 344 344 343 343 344 344 344 344 344 342 340 339 339 340 342 343 344 343 343 343 342 343 343 343 342 342 342 342 341 338 336 335 334 334 334 333 333 332 331 331 331 329 327 325 324 324 323 322 322 322 321 321 320 319 319 319 319 319 318 317 317 316 316 315
334 335 336 338 340 340 341 342 343 343 343 343 343 344 344 345 345 344 343 342 341 341 342 343 344 344 344 343 343 343 342 342 343 343 342 342 342 342 339 337 336 335 335 335 334 333 333 332 331 330 330 328 325 324 324 324 323 322 322 322 323 322 321 321 321 321 322 322 321 320 319 319 318 318
333 333 333 334 336 337 338 339 341 342 343 343 343 343 344 344 344 344 344 343 343 343 344 344 344 344 344 344 343 342 342 343 343 343 342 342 342 340 338 336 336 336 335 334 334 333 333 331 330 330 329 327 325 325 325 324 323 322 322 322 323 324 323 323 323 323 323 323 323 323 323 322 321 321
333 333 332 332 333 333 334 335 338 340 342 342 342 342 343 343 343 343 344 344 343 343 343 343 343 343 343 343 342 342 343 343 343 343 342 341 340 338 337 336 336 336 335 334 334 333 332 330 329 330 328 326 326 326 325 324 323 323 322 323 323 324 324 324 324 324 324 324 324 324 324 323 323 322
333 333 333 333 332 332 332 333 334 336 339 340 341 342 342 342 342 342 342 342 342 342 342 342 342 342 342 342 342 343 343 343 343 342 340 339 338 337 337 336 336 336 335 334 333 331 330 329 330 330 328 326 326 326 326 325 324 324 324 324 325 325 325 324 324 325 325 325 324 324 324 324 323 323
335 333 333 333 333 333 333 332 333 334 335 338 340 341 342 342 342 341 341 341 341 342 342 342 342 342 342 342 343 343 343 342 342 341 339 338 338 337 337 337 337 336 335 333 331 329 328 328 330 330 329 327 326 327 326 326 326 326 325 325 325 325 325 325 325 325 326 325 324 324 324 324 323 323
338 335 334 334 334 334 334 333 334 333 334 335 337 339 341 341 341 341 342 342 342 342 342 342 343 343 343 343 343 342 342 342 341 340 339 338 338 337 337 337 336 335 334 332 328 327 327 328 329 329 329 327 327 327 327 327 327 327 327 327 326 326 326 326 326 326 326 326 325 325 325 324 324 323
340 338 337 336 335 334 334 334 334 334 334 334 335 337 339 340 341 341 342 342 342 342 341 342 342 342 342 342 341 340 340 340 340 339 338 338 338 337 337 336 334 334 332 329 327 326 326 327 327 328 328 327 327 327 327 328 327 327 327 327 327 327 327 326 326 326 326 326 326 326 326 325 324 324
Wind_Speed
19 20 20 20 20 19 18 18 17 16 15 14 13 13 13 12 12 12 13 13 11 9 8 9 8 7 8 8 7 6 6 6 7 6 5 5 5 6 6 5 5 3 3 2 2 1 1 2 2 2 2 2 2 3 3 4 5 5 6 6 7 7 7 7 7 8 8 9 10 11 12 13 13 14
19 20 21 21 21 20 19 18 17 16 16 16 15 13 13 13 13 12 13 14 12 9 9 10 9 8 9 9 7 6 5 6 7 6 5 4 3 5 6 6 5 3 2 3 3 3 4 4 4 4 4 4 4 4 5 5 6 7 7 8 8 9 9 9 9 9 10 10 10 11 12 13 14 15
19 20 20 21 22 21 20 19 18 17 17 17 16 15 14 14 14 12 13 15 14 10 8 9 9 8 9 10 9 7 6 7 7 6 6 5 4 5 6 6 5 4 4 4 4 5 5 6 6 6 6 5 5 6 7 7 8 8 9 9 10 10 10 11 11 11 11 11 12 12 13 14 14 15
20 20 20 21 21 21 20 20 19 18 17 17 17 16 15 14 14 14 14 16 16 13 10 9 9 10 10 11 11 9 7 7 8 7 7 7 7 6 6 6 6 5 5 5 4 5 5 6 6 6 6 7 8 8 8 9 9 10 11 11 11 12 12 12 12 13 13 13 13 14 14 15 15 16
21 20 21 21 21 21 21 21 20 19 18 17 17 17 16 15 15 15 15 16 18 16 13 11 10 11 11 11 11 9 8 8 8 8 7 8 8 7 6 6 6 5 4 4 4 5 5 5 6 6 8 9 10 10 10 10 10 11 12 12 13 13 14 14 14 14 15 15 15 15 15 16 16 17
21 21 22 22 22 21 22 22 22 21 19 18 18 18 18 16 15 16 15 16 17 16 13 12 11 11 12 12 11 10 9 8 8 8 8 8 8 7 6 7 6 5 4 5 5 6 6 6 7 7 8 9 10 11 11 12 12 13 14 14 15 15 16 16 16 17 17 17 17 18 18 18 18 18
23 23 23 23 22 22 23 23 23 23 22 20 20 19 19 18 17 16 16 16 16 15 13 12 13 12 12 13 12 11 10 10 10 10 9 9 9 8 8 8 7 7 6 7 7 8 8 8 8 9 9 10 11 11 12 13 14 15 16 17 18 18 18 18 19 19 19 20 20 20 21 21 21 21
25 25 25 24 23 23 24 24 24 25 25 23 22 21 21 20 19 18 17 17 16 16 15 14 14 14 14 14 13 13 12 12 11 12 12 11 11 11 11 10 10 9 9 9 10 11 11 10 10 10 11 11 12 12 13 13 14 15 16 18 19 20 20 20 21 21 21 22 22 23 23 23 23 23
26 26 26 26 25 25 25 25 25 25 26 26 25 24 23 22 21 19 19 19 18 17 17 16 15 15 15 15 14 14 14 14 13 14 14 14 13 13 13 13 12 12 12 12 13 13 13 12 12 12 12 13 13 14 14 15 16 17 17 18 18 18 19 19 20 21 21 22 23 24 24 24 25 25
25 25 26 25 25 26 27 27 26 26 26 27 28 27 26 24 23 22 21 20 20 20 20 19 18 17 16 16 16 15 15 15 15 15 15 15 15 14 14 14 14 14 14 15 15 16 15 15 15 15 15 16 16 17 17 18 18 19 19 19 19 18 18 19 20 21 22 23 24 24 25 25 25 25
27 27 26 26 25 26 27 28 28 27 27 27 29 30 29 27 26 25 24 23 22 22 21 21 21 20 19 19 19 18 17 17 17 16 17 17 17 16 15 15 14 15 15 16 16 17 17 17 17 17 18 19 19 20 20 21 21 21 22 22 21 21 21 22 24 25 26 26 26 26 26 26 26 27
30 29 29 28 28 27 27 28 29 29 28 28 28 30 31 30 29 27 26 25 25 24 24 23 22 21 21 22 21 20 20 20 19 18 19 20 19 18 17 17 16 16 16 17 17 17 18 18 18 19 20 21 21 21 21 21 21 22 22 23 23 24 25 27 28 29 29 29 28 28 28 29 30 30
33 32 32 31 31 30 29 29 29 29 29 29 29 29 30 31 32 31 29 28 27 27 26 26 25 23 23 23 22 21 20 20 20 19 20 21 21 20 20 19 18 18 18 19 19 18 19 20 20 21 21 21 22 22 23 23 23 24 25 26 27 28 29 30 30 29 29 29 29 30 31 32 33 33
35 35 35 35 34 33 32 31 30 30 30 30 30 30 30 30 32 32 32 31 30 29 28 28 27 25 25 25 23 21 19 18 19 19 20 22 22 22 23 22 21 20 20 20 20 20 21 22 23 24 25 24 24 25 26 26 27 27 28 28 28 29 30 30 30 30 30 30 30 31 32 33 34 35
37 37 38 38 38 37 35 34 33 32 31 31 31 31 31 31 31 32 33 33 32 31 30 29 28 27 27 26 25 22 20 19 20 20 21 22 22 23 24 24 23 22 21 21 23 23 23 25 26 27 28 28 28 27 26 25 26 26 27 28 29 30 30 30 30 31 31 31 32 32 33 33 34 35
36 37 39 40 40 40 39 38 36 35 34 33 33 33 32 32 33 33 34 34 34 33 32 31 30 29 28 28 26 24 22 21 21 21 21 22 22 22 23 24 23 22 22 23 25 26 26 28 29 30 30 30 28 26 24 24 26 27 28 29 29 29 29 29 29 30 30 31 31 31 32 32 33 33
36 37 38 40 41 42 42 41 40 39 38 36 35 34 34 34 34 34 35 35 35 35 34 33 32 31 30 29 28 26 24 22 21 21 22 22 22 22 23 23 23 23 23 25 27 29 29 30 31 32 30 29 27 25 25 26 28 28 28 28 28 27 27 27 28 29 29 29 30 30 30 30 31 32
37 37 38 39 41 42 42 43 43 42 41 40 39 37 37 36 36 36 37 37 37 37 36 35 34 33 32 31 29 27 25 24 24 23 23 23 23 23 23 23 23 23 25 26 28 31 32 31 31 32 30 27 26 27 28 28 28 27 27 27 27 27 27 27 27 28 28 28 28 28 28 29 29 30
38 38 39 40 41 42 42 43 44 44 44 43 42 41 40 39 38 38 39 39 39 38 38 37 36 34 33 32 31 29 27 27 26 25 25 24 24 24 23 23 24 24 25 26 28 32 32 30 30 30 29 28 29 29 29 28 26 26 26 26 26 26 25 25 25 25 25 25 26 27 28 29 30 30
38 39 40 42 43 43 44 44 44 44 44 44 44 43 42 41 40 39 39 39 39 39 38 38 37 34 32 32 31 29 28 27 25 24 24 24 24 24 24 24 25 25 26 26 27 30 30 28 29 31 31 31 31 30 28 27 26 25 24 24 24 23 23 23 23 23 24 25 26 27 28 29 29 30
38 40 41 42 43 44 45 46 45 44 43 44 45 45 44 43 42 40 38 38 39 38 38 38 37 35 33 31 29 28 27 25 23 23 24 24 23 23 24 25 26 26 25 24 24 28 30 29 30 33 33 32 31 29 27 26 25 23 22 21 22 22 22 23 24 25 26 26 26 26 26 26 27 27
39 40 39 38 39 41 43 45 46 45 43 44 47 48 46 45 44 43 39 37 38 38 37 37 37 36 35 32 30 29 27 26 25 25 25 24 23 24 25 25 25 25 25 24 24 27 30 29 30 32 33 32 31 28 26 24 23 22 22 22 22 23 24 24 25 25 24 23 23 23 24 24 25 25
36 37 36 36 36 37 39 40 43 44 44 45 47 48 48 47 47 46 41 38 37 37 38 38 37 36 36 34 31 29 28 27 27 27 26 25 24 25 25 25 24 25 26 25 25 27 30 30 30 31 30 30 30 27 24 24 24 23 23 23 23 24 24 23 22 22 22 23 23 24 24 24 23 23
36 36 37 36 35 37 38 39 40 42 44 45 47 48 49 50 50 47 43 39 36 36 37 37 36 36 35 33 31 30 29 29 28 28 29 28 26 25 25 25 26 28 28 27 26 28 30 31 30 29 28 28 28 27 26 26 25 24 23 24 22 21 19 19 19 21 22 24 24 24 23 22 21 21
34 36 36 36 35 35 35 37 39 42 43 44 45 47 49 51 50 48 44 39 35 34 35 35 36 36 33 31 31 31 30 29 29 29 29 28 26 25 26 27 28 29 29 28 28 28 28 29 28 27 27 27 27 28 28 28 27 24 22 20 18 17 17 19 21 22 23 23 23 22 21 20 20 20
33 34 33 33 33 31 30 31 34 39 43 43 43 45 47 48 48 47 45 40 37 36 35 35 36 36 33 30 30 31 31 29 29 29 28 26 25 26 27 28 29 30 30 29 28 27 27 27 26 25 25 26 26 27 28 29 27 24 19 16 16 19 21 21 21 21 20 19 19 18 19 19 19 20
30 31 30 28 26 24 24 25 27 32 38 41 42 42 43 45 46 46 44 42 40 37 35 34 35 35 34 31 30 30 29 28 27 27 26 25 25 27 28 29 30 30 30 29 28 27 27 26 25 24 24 24 25 26 27 28 25 21 18 17 18 22 23 21 19 18 17 17 16 16 17 17 18 18
26 27 27 26 23 22 22 24 25 27 31 37 40 41 41 44 47 46 43 41 39 36 33 32 33 33 33 31 29 28 27 26 26 25 25 26 27 28 29 30 30 29 28 27 27 26 26 25 24 23 22 23 24 26 26 25 22 19 19 20 21 21 20 19 18 17 16 16 16 15 15 14 13 11
22 22 22 22 23 23 24 24 25 27 29 33 39 42 42 44 47 46 41 38 37 34 31 31 31 32 31 28 26 26 25 24 24 25 26 28 29 29 29 29 29 28 27 26 26 26 25 24 23 22 21 22 24 25 23 21 19 18 19 21 21 19 18 17 16 15 14 14 13 13 12 10 9 8
18 17 17 17 19 21 23 26 27 27 27 30 36 39 40 41 44 44 39 35 35 33 30 29 30 30 29 27 25 25 25 25 26 27 28 28 28 28 28 27 27 27 27 27 26 25 24 22 21 21 22 23 23 22 20 18 17 18 19 19 19 17 14 13 13 12 11 11 11 10 9 8 8 8
15 15 15 16 17 20 24 27 29 28 26 29 34 38 40 40 41 42 39 35 33 30 27 27 27 29 28 27 26 27 27 27 27 27 27 27 27 26 26 26 26 26 25 25 24 23 22 21 21 22 23 23 21 18 17 17 18 19 18 16 15 12 10 9 10 9 9 9 8 8 8 8 8 8
15 15 15 16 18 20 22 20 23 26 25 27 31 36 39 38 37 36 35 32 30 28 28 28 27 27 26 26 27 27 27 27 26 25 25 25 25 24 24 25 25 24 23 22 21 20 21 21 21 22 21 20 18 16 17 18 18 17 15 12 10 8 7 7 8 8 7 7 6 6 6 7 7 7
15 15 15 16 16 18 19 14 17 24 25 24 24 24 25 26 28 29 30 30 30 29 28 27 26 25 25 25 25 25 25 26 25 24 24 23 23 23 24 24 23 22 21 20 19 20 22 22 21 19 18 17 17 17 17 18 16 13 11 9 7 6 6 6 6 6 5 5 4 5 5 5 6 6
16 15 15 14 14 14 14 11 13 22 25 23 21 18 15 16 18 20 23 25 26 26 25 24 24 24 25 25 25 25 25 24 23 22 22 22 22 23 23 22 20 19 18 18 20 22 21 19 17 16 16 17 17 17 16 15 13 10 8 6 5 5 6 6 5 5 4 3 3 3 4 4 4 5
15 15 15 14 13 12 12 8 7 14 17 16 15 15 14 14 16 17 19 21 22 22 22 22 22 23 24 25 25 24 23 22 21 21 21 22 23 22 21 19 17 17 17 19 20 19 16 14 14 16 17 17 17 16 14 13 11 9 7 6 5 6 6 5 5 4 3 2 1 2 2 3 3 3
16 15 15 15 13 11 11 9 6 8 10 11 12 13 14 15 16 17 18 18 19 20 20 21 22 23 24 24 23 22 21 21 21 21 21 22 22 21 19 17 16 16 17 17 15 14 14 15 16 17 16 16 16 15 13 11 11 9 7 6 5 6 6 5 5 4 3 2 1 1 1 1 1 2
16 15 15 15 13 11 10 10 9 10 11 11 11 13 14 15 15 16 16 17 18 19 21 22 23 24 23 22 22 21 22 21 20 20 20 21 21 20 18 17 17 17 16 14 13 13 15 17 17 17 16 16 15 13 11 11 11 10 8 6 6 6 6 6 5 4 3 2 1 1 1 1 1 1
15 15 14 13 13 12 11 12 13 14 14 13 13 14 15 16 17 17 18 20 21 22 23 24 25 24 24 23 23 23 23 22 21 21 20 20 20 20 18 17 16 15 14 13 14 16 17 17 17 17 16 15 14 12 11 11 11 9 8 8 7 7 7 6 5 4 3 2 2 2 3 2 2 2
14 14 13 12 11 11 11 12 13 14 15 16 16 16 17 18 19 21 22 24 25 26 26 26 26 26 26 25 24 24 23 23 22 22 21 21 21 20 18 17 15 14 14 15 16 18 18 18 18 17 15 14 12 11 10 11 10 10 9 9 9 8 7 6 5 4 3 3 3 3 4 4 4 4
14 13 13 13 12 11 11 12 12 13 15 16 17 18 18 19 20 22 23 24 25 25 26 26 26 26 27 26 25 24 24 23 23 22 22 21 20 19 17 16 15 14 15 17 18 20 20 19 17 15 13 12 12 11 11 11 11 11 11 11 10 9 8 7 6 5 4 4 3 3 4 4 4 5
15 14 14 13 13 13 12 12 13 14 15 15 16 16 17 19 20 21 22 22 23 23 24 25 25 26 26 26 25 24 24 23 22 22 21 20 20 18 17 16 16 16 17 19 20 21 20 18 14 12 12 13 14 13 12 12 13 13 13 12 11 10 9 8 6 6 5 5 5 5 4 4 4 4
15 15 14 14 14 13 13 13 13 15 16 17 17 17 17 17 19 20 20 20 21 22 23 24 24 24 24 24 24 23 23 22 21 21 21 20 20 19 19 19 19 19 19 20 20 19 18 15 15 15 16 16 16 15 14 14 13 12 13 13 12 11 10 9 8 7 6 6 7 7 6 5 5 4
14 15 15 14 14 14 14 14 14 14 16 17 18 19 18 19 19 19 19 20 21 21 22 22 22 22 23 24 23 23 22 21 21 21 21 20 19 19 20 20 20 20 20 19 18 17 16 17 18 19 19 19 18 17 15 14 12 12 12 13 13 12 12 12 11 9 9 8 8 8 7 7 7 6
14 14 14 15 15 15 15 15 15 15 15 17 18 19 20 21 21 21 21 21 21 21 21 22 22 22 22 22 22 21 21 20 20 21 20 19 19 19 20 20 21 20 20 19 17 16 17 19 20 21 21 21 20 19 17 14 13 12 12 12 13 14 14 14 13 12 11 10 9 9 9 9 9 8
16 15 15 15 15 16 16 16 17 17 16 17 18 19 20 21 22 22 22 21 21 21 20 21 22 23 22 22 21 20 20 19 20 20 20 20 20 20 21 22 22 21 20 20 19 18 19 21 22 22 22 21 21 20 17 15 13 13 12 13 14 14 15 16 15 14 14 12 11 11 11 11 11 11
Wind_Direction
242 245 243 241 240 241 244 249 253 256 253 250 250 251 253 260 272 284 288 286 278 267 258 247 241 231 218 211 207 210 212 216 222 220 215 223 221 213 208 198 193 192 196 203 214 233 255 267 272 278 283 291 302 310 317 319 320 321 317 314 309 302 297 295 292 285 281 277 274 273 274 274 275 276
242 244 243 242 241 242 245 248 249 250 249 246 245 247 249 254 261 271 283 286 279 271 261 247 244 240 226 219 221 222 219 223 228 222 213 213 210 211 214 209 198 198 231 255 265 274 280 279 279 280 280 280 291 304 311 315 318 317 315 313 309 305 302 302 298 292 287 283 279 276 274 274 275 275
242 244 244 243 243 243 244 244 245 247 247 245 244 243 245 252 258 262 273 277 274 273 268 248 239 239 231 228 233 232 225 229 235 232 223 219 216 217 219 222 226 243 266 271 271 277 281 281 280 277 271 270 284 296 301 304 307 309 309 310 308 306 304 303 301 298 294 291 287 283 279 276 275 275
244 246 245 244 244 244 243 241 242 244 244 244 243 241 244 251 256 257 260 266 271 274 271 256 240 234 231 229 231 230 225 230 238 239 233 227 227 227 226 231 242 255 266 269 273 281 284 282 279 273 267 271 282 289 293 296 299 301 302 301 300 300 299 299 300 299 298 295 292 290 286 284 281 280
246 248 247 245 244 245 244 243 241 241 242 244 242 240 244 250 254 255 254 261 272 275 264 253 245 239 234 229 226 227 227 232 240 243 238 231 231 235 237 236 237 242 256 271 283 291 292 289 284 278 277 280 283 283 282 284 287 290 292 292 292 291 291 292 293 294 295 294 293 292 289 288 286 285
246 247 248 247 245 245 245 244 241 239 240 243 244 241 243 249 252 253 254 259 271 272 256 245 247 244 237 231 227 229 231 234 239 239 236 234 235 236 234 228 225 234 259 280 291 296 295 292 290 289 291 292 291 289 286 284 284 284 285 286 287 287 287 287 287 288 290 291 291 291 290 289 289 288
250 249 249 248 247 247 246 244 242 240 240 243 245 244 244 246 248 250 251 255 264 267 256 245 245 245 242 237 234 236 236 236 237 235 233 236 238 238 238 236 237 247 262 273 282 288 287 285 288 292 296 297 298 298 295 293 291 289 288 286 284 284 285 286 287 287 288 288 288 288 288 288 288 288
255 254 252 250 249 249 249 247 245 242 242 243 244 245 244 244 245 246 248 251 255 259 258 251 246 246 246 243 241 242 241 239 240 240 239 242 246 248 251 256 260 263 267 273 280 285 284 281 281 285 288 290 292 293 293 292 293 295 295 291 287 284 284 285 287 287 287 287 286 286 286 286 286 287
258 258 256 254 253 252 251 249 248 246 245 244 244 244 243 243 244 245 245 247 249 251 254 254 250 248 247 245 244 245 246 247 249 250 248 250 255 257 259 265 271 275 277 281 286 287 284 278 274 275 277 280 282 284 285 285 288 292 295 295 292 288 286 286 287 288 288 287 285 284 283 283 283 283
258 258 258 258 257 256 254 251 250 248 247 246 244 242 242 242 244 245 245 246 247 248 250 254 255 252 248 245 244 245 249 252 255 255 254 254 257 261 265 271 277 280 282 286 289 287 284 279 274 272 274 277 280 283 285 286 286 288 290 292 292 290 289 290 290 291 291 289 286 284 282 281 280 280
259 258 257 258 258 258 257 255 253 251 250 249 247 244 242 241 243 245 245 246 247 248 250 252 255 255 251 249 248 249 253 256 257 257 256 256 258 262 268 276 280 280 283 289 291 288 286 284 281 279 280 282 283 285 287 287 287 287 288 289 289 288 288 288 289 289 289 287 285 282 279 278 277 277
260 259 258 256 256 256 256 256 256 255 254 252 250 246 243 242 243 244 245 246 247 249 250 252 254 256 254 251 250 252 255 257 259 260 260 261 261 263 270 277 279 279 284 291 293 290 287 286 286 288 289 288 287 287 288 288 288 288 288 287 286 286 286 286 286 287 286 285 282 279 277 275 274 274
260 260 259 258 256 254 254 254 256 256 255 254 253 249 245 244 244 244 245 246 246 248 250 252 254 256 254 251 250 251 255 260 263 264 263 264 264 266 270 274 276 278 284 290 292 291 288 287 288 293 295 294 291 290 288 287 286 286 286 285 285 284 285 285 285 285 284 282 280 278 277 275 274 275
258 259 260 260 259 257 254 253 254 255 254 254 252 250 248 246 246 245 245 245 245 247 249 251 253 254 253 250 247 250 257 263 265 264 264 266 267 268 269 272 273 275 281 287 290 291 291 291 292 296 298 298 296 294 291 287 285 285 286 286 286 286 286 286 286 286 284 282 281 279 277 276 276 276
257 258 259 261 262 261 258 254 252 252 252 253 252 250 248 247 247 246 245 244 244 246 248 250 250 250 250 248 247 249 256 261 263 264 265 267 268 268 268 269 270 273 279 285 288 291 294 295 296 297 298 300 301 300 296 292 290 289 290 290 290 290 289 289 288 286 284 283 281 280 279 278 278 279
257 257 257 258 259 260 259 258 256 253 252 252 252 251 249 247 246 246 245 244 244 244 247 249 249 247 246 247 247 248 253 259 263 265 265 265 266 266 266 267 270 275 280 284 286 290 294 296 297 298 299 301 302 301 298 297 296 296 295 295 293 291 290 289 288 286 284 283 282 281 281 281 281 282
259 258 257 256 256 257 258 258 258 256 254 253 252 252 252 250 247 245 245 245 245 245 246 247 248 246 244 246 248 250 254 259 262 264 265 264 264 265 266 267 270 274 277 281 285 289 292 295 296 296 298 300 300 299 298 299 298 297 296 294 293 291 289 288 287 285 284 283 282 282 282 282 282 281
261 260 259 257 257 256 256 256 256 256 255 255 253 252 252 251 248 246 245 245 246 246 245 245 245 245 243 245 249 251 254 257 261 264 265 263 263 265 267 268 270 271 275 281 286 288 291 295 294 294 297 299 298 298 299 299 298 296 295 294 292 291 289 287 286 285 285 285 284 283 282 281 280 279
262 261 260 259 258 257 255 253 253 253 253 254 253 253 252 251 249 247 245 244 245 245 243 242 243 244 244 245 248 251 255 259 263 264 263 261 262 264 265 266 267 270 276 282 285 287 290 293 293 294 298 299 298 299 300 299 298 296 296 295 293 292 291 289 289 289 289 289 287 285 284 282 281 281
264 263 262 260 259 258 256 253 251 249 249 250 251 251 251 251 251 249 246 244 244 244 243 243 244 246 246 247 249 252 255 259 260 259 257 257 259 261 263 265 268 273 277 281 283 285 288 292 294 296 299 299 298 299 300 300 300 300 299 297 295 293 292 292 292 293 293 291 289 288 286 286 285 285
268 266 264 262 261 259 257 254 251 248 245 245 246 248 249 250 251 250 247 244 244 245 245 245 246 247 247 247 248 250 252 253 252 251 253 255 258 261 263 267 271 275 277 279 281 284 287 293 296 297 297 297 297 299 302 302 302 303 302 299 297 296 294 294 295 295 294 292 291 290 290 289 289 289
273 270 266 262 261 261 259 255 251 248 243 241 242 243 244 246 248 248 247 244 244 244 245 246 247 246 244 245 246 246 247 249 250 250 252 254 258 261 264 268 273 274 275 276 280 284 288 293 296 296 296 297 297 300 302 303 304 305 304 302 299 297 296 296 296 294 293 293 294 294 293 292 290 289
278 273 268 263 260 260 260 257 253 248 242 239 239 240 240 242 245 246 246 245 244 242 243 245 245 242 241 243 244 244 246 250 252 253 253 254 258 262 265 268 271 272 274 278 282 285 288 292 294 294 295 297 299 302 304 303 304 304 303 301 300 297 296 295 293 292 292 295 296 297 296 294 293 292
278 273 271 269 265 261 259 257 254 249 243 239 238 238 237 238 241 244 245 245 243 240 241 243 242 240 239 239 240 241 245 249 252 254 257 258 259 262 264 268 270 272 276 282 284 285 288 291 292 292 293 295 298 300 301 300 300 302 302 301 298 294 293 293 293 294 297 298 298 297 296 296 297 296
281 276 272 271 270 267 262 258 253 248 244 240 237 236 237 238 240 242 244 244 241 239 240 240 239 238 238 237 238 241 244 248 251 254 258 259 258 260 265 269 272 274 278 282 284 285 286 288 289 290 291 292 293 296 296 297 300 303 303 300 295 292 294 296 296 296 296 294 291 289 289 289 290 291
285 282 277 273 271 268 266 262 253 245 241 238 236 235 237 238 239 240 241 241 238 237 238 239 238 238 237 237 241 245 246 248 251 254 255 256 258 263 268 271 272 276 279 283 284 283 283 284 285 286 288 289 290 292 293 296 301 304 303 300 297 298 301 302 300 299 299 297 294 291 291 290 290 292
290 286 281 278 275 272 271 270 260 246 239 236 235 235 235 236 237 237 237 237 236 235 237 239 240 239 236 235 238 242 245 247 249 252 254 257 262 265 268 271 272 275 278 280 281 280 279 280 282 283 283 284 286 288 291 295 299 301 301 300 298 297 301 304 306 308 312 314 313 312 311 310 308 306
299 292 283 280 281 280 278 277 270 257 244 237 234 233 232 231 232 233 233 234 235 238 241 242 241 239 236 232 232 237 242 245 247 251 256 260 263 266 268 269 270 272 274 276 277 277 276 277 279 279 279 280 283 287 290 292 294 295 298 300 299 300 304 307 309 315 319 321 324 326 326 325 325 324
305 300 289 282 280 279 277 275 271 264 254 242 236 233 231 230 231 231 231 231 233 237 241 242 241 240 236 232 230 233 238 242 247 254 259 261 263 265 265 267 268 270 272 272 271 272 272 273 274 274 276 279 282 284 284 285 289 292 294 297 300 302 304 305 309 316 321 324 330 335 337 343 351 0
308 306 299 290 285 282 278 271 263 260 256 247 241 237 232 230 230 229 227 226 229 232 234 235 238 239 234 230 231 235 240 247 252 257 260 261 262 262 263 264 266 267 268 267 267 267 268 268 269 272 277 279 280 278 278 281 287 290 292 295 297 298 298 301 308 315 321 329 336 340 345 357 5 11
309 312 311 304 297 295 290 274 257 251 252 249 242 235 230 229 230 229 225 224 226 227 226 226 231 235 234 233 238 244 249 253 256 257 258 259 260 261 261 262 263 263 263 263 262 261 260 262 267 272 275 274 272 273 277 282 284 287 289 289 287 287 291 298 305 314 323 332 339 345 354 7 13 13
308 314 317 313 306 309 310 286 250 240 245 244 234 224 219 221 223 222 219 218 218 219 221 223 229 238 242 243 245 249 252 254 256 257 257 258 259 259 258 257 257 257 256 255 257 257 259 263 268 270 268 266 266 270 276 279 280 281 279 274 272 277 288 297 305 314 323 330 339 351 2 11 16 16
306 308 311 314 312 317 324 304 245 230 234 237 229 217 208 206 207 206 207 211 214 217 222 226 233 242 248 247 247 249 251 253 255 256 256 256 255 254 252 251 252 251 250 252 256 260 263 266 267 264 261 262 267 271 273 274 274 271 263 260 266 281 290 294 298 305 314 324 339 359 10 14 16 14
304 304 305 310 313 315 319 304 242 226 228 229 223 214 203 197 200 204 209 215 220 225 231 235 238 241 244 247 249 250 250 252 254 253 252 251 252 251 249 247 246 245 247 253 258 260 261 260 255 252 254 261 267 269 268 268 265 256 249 254 268 278 280 278 278 282 295 313 335 2 16 16 16 16
302 304 303 304 307 307 311 307 245 226 228 221 209 206 207 207 211 217 220 224 229 233 235 237 238 240 244 247 249 249 250 251 252 250 248 246 246 244 241 239 240 242 247 253 255 255 253 249 245 248 254 261 265 265 260 255 249 242 242 252 260 264 262 255 251 255 263 283 325 17 29 22 20 24
301 304 304 302 299 296 294 295 273 242 234 221 210 214 219 218 219 223 225 226 229 231 233 236 239 242 245 245 245 246 248 248 247 247 245 242 239 236 235 237 241 245 250 253 250 245 242 243 245 248 252 256 261 261 253 243 237 235 234 239 247 250 244 232 228 230 231 236 278 32 41 2 7 29
297 300 300 299 297 291 281 277 273 264 255 243 230 226 227 227 227 229 229 229 231 233 237 240 242 242 241 241 242 244 244 244 243 244 243 239 233 230 234 239 242 245 250 251 247 241 241 243 245 246 247 250 254 252 239 228 226 226 223 225 233 234 227 220 217 217 217 216 206 193 210 236 252 23
291 294 294 294 294 290 280 270 265 264 263 258 249 240 237 236 235 233 232 234 236 239 240 241 241 239 237 238 240 242 242 241 241 241 239 233 227 226 232 238 242 245 248 248 245 243 243 245 246 243 241 243 245 240 227 220 220 218 216 218 221 221 218 215 211 208 209 216 218 224 235 245 253 273
280 285 287 287 286 284 279 271 264 261 258 255 252 247 244 242 240 239 237 237 239 241 241 240 239 238 237 239 242 243 243 242 240 238 235 229 225 227 233 238 242 247 246 243 242 242 244 249 248 239 232 235 236 228 220 219 218 215 213 214 216 215 211 206 203 202 202 207 219 233 246 258 268 277
274 276 278 279 278 276 274 270 265 261 258 255 252 249 246 246 246 243 241 240 241 241 240 240 239 239 239 241 244 244 243 242 240 236 232 227 226 229 235 238 244 249 248 244 242 241 247 253 249 234 226 228 225 218 217 218 217 215 216 217 218 215 208 202 202 207 213 219 229 239 248 261 272 278
274 274 274 273 272 270 268 265 260 257 256 256 256 253 248 246 246 244 242 242 242 242 241 241 241 241 242 243 243 243 241 239 235 230 226 225 227 230 236 241 246 249 248 244 241 244 251 255 242 222 219 221 216 215 218 219 218 217 217 218 220 216 211 209 209 213 222 232 240 246 249 255 264 271
272 272 271 269 268 267 265 261 256 251 250 251 253 254 251 248 246 243 241 241 242 243 243 243 243 243 243 242 240 237 235 233 230 226 224 225 228 231 236 241 246 249 248 245 245 249 253 242 218 210 217 219 217 218 222 220 218 216 214 217 221 220 218 219 222 226 234 238 241 248 251 251 254 259
271 271 270 268 268 266 265 263 259 253 249 246 246 247 248 248 247 244 240 239 240 242 243 243 242 242 241 239 235 231 228 226 226 227 228 230 232 236 241 245 250 253 251 247 245 245 236 218 205 208 217 220 219 222 223 219 216 215 216 220 225 226 227 229 230 232 237 239 240 246 250 252 255 261
269 269 268 266 265 263 262 263 262 259 255 249 245 244 244 245 245 243 240 240 242 244 245 245 243 241 239 238 236 234 231 228 228 230 233 236 240 245 249 252 254 253 247 239 232 223 213 205 203 210 218 221 222 225 225 220 216 218 221 225 228 231 235 237 236 236 237 236 239 245 249 251 255 259
268 268 267 265 262 260 258 259 260 260 259 255 250 247 244 243 243 242 240 241 244 246 246 246 244 239 236 234 235 235 234 232 232 234 237 241 246 250 252 254 253 246 234 224 216 208 206 207 209 214 220 223 224 225 226 225 224 227 230 232 233 234 237 239 241 242 241 240 243 248 251 252 253 256